Weather History for KFWS - April, 2013

Change the Weather History Date:

Monday, April 22, 2013

  Actual Average (KDFW) Record (KDFW)
Temperature  
Mean Temperature 64 °F 67 °F  
Max Temperature 78 °F 78 °F 94 °F (1963)
Min Temperature 51 °F 57 °F 39 °F (1927)
Degree Days  
Heating Degree Days 0 2  
Month to date heating degree days 74  
Since 1 July heating degree days 2267  
Cooling Degree Days 0 4  
Month to date cooling degree days 62  
Year to date cooling degree days 101  
Growing Degree Days 14 (Base 50)    
Moisture  
Dew Point 52 °F    
Average Humidity 70    
Maximum Humidity 94    
Minimum Humidity 47    
Precipitation  
Precipitation 0.00 in 0.11 in 2.03 in (1962)
Month to date precipitation 2.05  
Year to date precipitation 10.33  
Snow  
Snow 0.00 in 0.00 in 0.00 in ()
Month to date snowfall 0.0  
Since 1 July snowfall 1.2  
Snow Depth -    
Sea Level Pressure  
Sea Level Pressure 30.00 in    
Wind  
Wind Speed 7 mph (SSE)    
Max Wind Speed 24 mph    
Max Gust Speed 31 mph    
Visibility 10 miles    
Events      
T = Trace of Precipitation, MM = Missing Value Source: NWS Daily Summary

Daily Weather History Graph

Daily Weather History Graph

Search for Another Location

Airport or City:

Trip Planner

Search our weather history database for the weather conditions in past years. The results will help you decide how hot, cold, wet, or windy it might be!

Date:

Astronomy

Apr. 22, 2013 Rise Set
Actual Time 6:51 AM CDT 8:04 PM CDT
Civil Twilight 6:25 AM CDT 8:30 PM CDT
Nautical Twilight 5:55 AM CDT 9:00 PM CDT
Astronomical Twilight 5:23 AM CDT 9:32 PM CDT
Moon 5:04 PM CDT (4/22) 4:35 AM CDT (4/22)
Length of Visible Light 14h 04m
Length of Day
13h 12m
Waxing Gibbous, 88% of the Moon is Illuminated
Apr 22
Waxing Gibbous
Apr 25
Full
May 2
Last Quarter
May 9
New
May 17
First Quarter

Hourly Weather History & Observations

Time (CDT) Temp. Dew Point Humidity Pressure Visibility Wind Dir Wind Speed Gust Speed Precip Events Conditions
12:15 AM 54.5 °F 48.2 °F 79% 30.12 in 10.0 mi SE 3.5 mph - N/A   Clear
12:35 AM 54.0 °F 48.0 °F 80% 30.12 in 10.0 mi Calm Calm - N/A   Clear
12:55 AM 54.3 °F 47.7 °F 78% 30.12 in 10.0 mi Calm Calm - N/A   Clear
1:15 AM 53.4 °F 47.3 °F 80% 30.12 in 10.0 mi SSE 4.6 mph - N/A   Clear
1:35 AM 54.0 °F 47.1 °F 78% 30.11 in 10.0 mi Calm Calm - N/A   Clear
2:15 AM 52.2 °F 46.9 °F 82% 30.10 in 10.0 mi SSE 3.5 mph - N/A   Clear
2:35 AM 52.3 °F 46.4 °F 80% 30.10 in 10.0 mi SE 4.6 mph - N/A   Clear
2:55 AM 52.9 °F 46.6 °F 79% 30.09 in 10.0 mi SE 5.8 mph - N/A   Clear
3:15 AM 52.9 °F 46.8 °F 80% 30.08 in 10.0 mi SSE 5.8 mph - N/A   Clear
3:35 AM 53.1 °F 46.8 °F 79% 30.08 in 10.0 mi SE 5.8 mph - N/A   Clear
3:55 AM 52.7 °F 46.6 °F 80% 30.08 in 10.0 mi SE 4.6 mph - N/A   Clear
4:15 AM 52.2 °F 46.6 °F 81% 30.08 in 10.0 mi SSE 5.8 mph - N/A   Clear
4:35 AM 52.0 °F 46.6 °F 82% 30.07 in 10.0 mi SSE 5.8 mph - N/A   Clear
4:55 AM 52.0 °F 46.8 °F 82% 30.07 in 10.0 mi SSE 5.8 mph - N/A   Clear
5:15 AM 51.3 °F 46.4 °F 83% 30.07 in 10.0 mi SSE 4.6 mph - N/A   Clear
5:35 AM 51.1 °F 46.6 °F 85% 30.07 in 10.0 mi Calm Calm - N/A   Clear
5:55 AM 51.1 °F 46.6 °F 85% 30.07 in 10.0 mi SSE 4.6 mph - N/A   Clear
6:50 AM 51.8 °F 46.4 °F 82% 30.08 in 10.0 mi SSE 6.9 mph - N/A   Clear
7:47 AM 53.6 °F 51.8 °F 94% 30.09 in 10.0 mi SSE 8.1 mph - N/A   Clear
8:51 AM 60.8 °F 53.6 °F 77% 30.09 in 10.0 mi SSE 8.1 mph - N/A   Clear
9:50 AM 64.4 °F 53.6 °F 68% 30.09 in 10.0 mi South 18.4 mph 29.9 mph N/A   Clear
10:51 AM 69.8 °F 53.6 °F 56% 30.09 in 10.0 mi South 18.4 mph - N/A   Clear
11:51 AM 71.6 °F 53.6 °F 53% 30.06 in 10.0 mi South 24.2 mph 31.1 mph N/A   Clear
12:50 PM 73.4 °F 55.4 °F 53% 30.03 in 10.0 mi South 12.7 mph 20.7 mph N/A   Clear
1:52 PM 75.2 °F 55.4 °F 50% 29.99 in 10.0 mi SSE 20.7 mph 29.9 mph N/A   Partly Cloudy
2:50 PM 77.0 °F 57.2 °F 50% 29.96 in 10.0 mi SE 13.8 mph 24.2 mph N/A   Partly Cloudy
3:47 PM 78.8 °F 57.2 °F 47% 29.93 in 10.0 mi South 13.8 mph 20.7 mph N/A   Partly Cloudy
4:50 PM 78.8 °F 57.2 °F 47% 29.88 in 10.0 mi SSE 13.8 mph 21.9 mph N/A   Partly Cloudy
5:48 PM 78.8 °F 57.2 °F 47% 29.87 in 10.0 mi SSE 13.8 mph 20.7 mph N/A   Clear
6:50 PM 78.8 °F 57.2 °F 47% 29.85 in 10.0 mi SE 12.7 mph 19.6 mph N/A   Clear
7:55 PM 74.5 °F 57.9 °F 56% 29.85 in 10.0 mi SE 8.1 mph - N/A   Clear
8:15 PM 73.0 °F 57.7 °F 59% 29.85 in 10.0 mi SE 8.1 mph - N/A   Clear
8:35 PM 71.6 °F 57.4 °F 61% 29.86 in 10.0 mi SE 6.9 mph - N/A   Clear
8:55 PM 70.7 °F 58.1 °F 64% 29.87 in 10.0 mi SSE 8.1 mph - N/A   Clear
9:15 PM 70.5 °F 58.1 °F 65% 29.87 in 10.0 mi SSE 9.2 mph - N/A   Clear
9:35 PM 70.0 °F 57.9 °F 65% 29.87 in 10.0 mi SSE 9.2 mph - N/A   Clear
9:55 PM 69.8 °F 57.9 °F 66% 29.88 in 10.0 mi SSE 9.2 mph - N/A   Clear
10:15 PM 68.5 °F 57.6 °F 68% 29.89 in 10.0 mi SE 8.1 mph - N/A   Clear
10:35 PM 68.0 °F 57.6 °F 69% 29.89 in 10.0 mi SE 6.9 mph - N/A   Clear
10:55 PM 67.1 °F 57.4 °F 71% 29.88 in 10.0 mi SE 9.2 mph - N/A   Clear
11:15 PM 67.1 °F 57.2 °F 70% 29.88 in 10.0 mi SSE 10.4 mph - N/A   Clear
11:35 PM 67.1 °F 57.2 °F 70% 29.87 in 10.0 mi SSE 13.8 mph - N/A   Clear
11:55 PM 67.1 °F 57.4 °F 71% 29.86 in 10.0 mi SSE 12.7 mph 17.3 mph N/A   Clear